Regional Weather Roundup
Issued by NWS Cleveland, OH

Home | Current Version | Previous Version | Text Only | Print | Product List | Glossary Off
Versions: 1 2 3 4 5 6 7 8 9 10 11 12 13 14 15 16 17 18 19 20 21 22 23 24 25 26 27 28 29 30 31 32 33 34 35 36 37 38 39 40 41 42 43 44 45 46 47 48 49 50

000
ASUS41 KCLE 041410
RWRCLE
OHIO REGIONAL WEATHER ROUNDUP
NATIONAL WEATHER SERVICE WILMINGTON, OH
1000 AM EDT FRI SEP 04 2015

NOTE: "FAIR" INDICATES FEW OR NO CLOUDS BELOW 12,000 FEET WITH NO
SIGNIFICANT WEATHER AND/OR OBSTRUCTIONS TO VISIBILITY.

OHZ001>008-015>018-024>027-034-035-043-044-041500-
   NORTHWEST OHIO

CITY           SKY/WX    TMP DP  RH WIND       PRES   REMARKS
DEFIANCE       MOSUNNY   77  70  79 W3        30.01S HAZE
FINDLAY        PTSUNNY   78  68  71 S10       30.02S
TOLEDO EXPRESS MOSUNNY   75  69  81 CALM      30.01R
TOLEDO EXEC    MOSUNNY   76  68  76 S10       30.02R
LIMA           MOSUNNY   77  68  73 S8        30.04R
$$

OHZ009>014-019>023-028>033-038-089-041500-
   NORTHEAST OHIO

CITY           SKY/WX    TMP DP  RH WIND       PRES   REMARKS
CLE-HOPKINS    CLOUDY    69  66  90 S12       30.08R
CLE-LAKEFRONT  PTSUNNY   73  66  78 S7        30.04R
CUY CO. ARPT   CLOUDY    75  68  78 CALM      30.06R
LORAIN-ELYRIA  RAIN      68  65  90 S16G25    30.05S FOG
ASHTABULA      PTSUNNY   72  68  87 S5        30.09R
AKRON-CANTON   LGT RAIN  69  65  86 W7        30.09S FOG
WOOSTER        CLOUDY    67  65  93 CALM      30.10S
MANSFIELD      MOSUNNY   69  66  90 SE8       30.08S
YOUNGSTOWN     CLOUDY    70  66  87 S6        30.09S
$$

OHZ042-051>053-060>062-070>072-077>081-041500-
  SOUTHWEST OHIO

CITY           SKY/WX    TMP DP  RH WIND       PRES   REMARKS
CINC-COVINGTON MOSUNNY   81  68  64 W5        30.05S
CINC-LUNKEN    SUNNY     77  72  84 CALM      30.05S HAZE
HAMILTON       MOSUNNY   81  70  69 CALM      30.05S
DAYTON         PTSUNNY   78  70  76 S5        30.06R
WRIGHT-PAT AFB MOSUNNY   75  69  80 SE5       30.05S
DAYTON GENERAL SUNNY     77  68  73 S3        30.06R
WILMINGTON     SUNNY     76  69  79 SE5       30.06S
$$

OHZ036-037-039>041-045>050-054>059-063>069-073>076-082>088-041500-
  CENTRAL AND SOUTHEAST OHIO

CITY           SKY/WX    TMP DP  RH WIND       PRES   REMARKS
COLUMBUS       CLOUDY    71  66  84 VRB3      30.07R
OSU AIRPORT    PTSUNNY   73  67  81 SE6       30.07R
BOLTON FIELD   SUNNY     70  66  88 SE5       30.07R
RICKENBACK AFB PTSUNNY   71  66  85 S3        30.06S
NEWARK         CLOUDY    70  65  84 CALM      30.07S
MARION         MOSUNNY   73  67  81 S14       30.06S
LANCASTER      CLOUDY    71  66  84 CALM      30.08R
ZANESVILLE     CLOUDY    67  65  93 W6        30.08R FOG
NEW PHILLY     RAIN      67  66  97 CALM      30.10F FOG
$$


USA.gov is the U.S. government's official web portal to all federal, state and local government web resources and services.